Lid_Strength_Index
7 10 11 10 9 8 11 12 13 12 9 11 11 11 10 8 7 8 6 6 5 5 3 2 2 2 1 1 1 1 1 1 1 1 1 1 2 1 0 0 -0 0 0 -0
9 11 8 8 8 9 11 13 13 11 10 10 11 12 10 8 8 7 7 6 6 5 4 3 3 2 2 2 1 1 1 1 1 1 1 1 1 1 0 0 0 0 0 0
10 8 6 9 9 10 11 13 13 13 11 10 12 13 12 9 8 7 6 6 5 5 4 4 3 3 2 2 2 1 1 1 1 0 1 1 0 1 2 1 0 0 -0 0
9 7 7 9 10 10 14 10 11 12 13 17 12 19 13 11 10 8 7 6 6 6 4 4 3 3 3 2 1 1 1 1 1 0 1 2 2 3 1 1 1 1 0 0
9 9 9 10 8 9 12 9 10 11 14 14 14 17 14 11 12 10 8 7 6 5 4 4 3 3 2 2 2 1 1 1 1 1 1 1 2 1 1 1 1 2 1 -0
8 6 8 9 6 8 8 10 11 12 14 19 15 16 16 14 11 9 8 7 6 5 4 4 3 2 2 2 2 1 1 1 1 1 1 1 2 2 2 2 1 1 1 0
8 8 8 7 9 9 10 13 18 20 19 19 14 16 14 10 9 8 8 7 6 5 5 4 4 3 3 2 2 2 2 2 1 1 1 1 1 1 1 1 1 1 2 2
12 13 9 6 9 11 12 12 17 21 21 19 13 17 14 9 7 7 6 6 6 5 5 4 4 4 3 2 2 2 2 2 1 1 1 1 1 1 1 1 1 1 1 1
12 11 7 6 6 8 10 13 9 15 15 18 16 14 11 9 9 7 7 7 7 6 5 5 4 3 3 3 2 2 2 2 1 1 1 1 1 1 1 1 1 1 0 0
10 13 8 7 7 7 10 8 13 14 20 21 18 17 16 12 11 9 8 7 6 5 5 4 4 3 3 2 3 2 2 2 1 1 1 1 1 1 1 1 2 2 2 1
9 11 10 8 10 10 11 12 12 12 13 18 20 17 11 10 9 9 8 7 6 5 5 4 4 3 3 2 2 2 3 2 2 1 1 1 1 1 1 1 1 1 2 2
8 11 13 11 7 7 9 11 12 14 15 14 14 17 9 8 8 7 7 6 6 5 5 4 4 3 3 3 2 2 2 2 1 1 1 1 1 2 1 2 1 1 1 1
9 12 14 12 10 8 10 10 11 12 12 14 15 17 8 8 8 7 7 7 6 5 5 5 4 4 4 3 3 2 2 2 1 2 1 1 2 1 1 1 1 1 0 1
6 11 13 15 12 9 11 9 9 11 14 13 14 14 12 9 9 8 8 7 7 6 5 5 5 4 3 3 3 2 2 2 2 2 1 2 2 2 1 1 1 1 1 1
9 12 11 10 9 9 9 9 9 11 11 13 13 13 12 11 9 8 7 7 7 6 6 5 5 4 4 3 3 2 2 2 1 2 2 2 1 1 1 1 1 1 1 0
8 12 12 12 10 10 11 9 9 9 9 11 12 14 9 8 7 8 7 7 7 6 6 5 4 4 4 4 3 2 2 2 1 2 2 1 1 1 1 1 1 1 1 1
10 12 13 17 12 12 13 11 10 11 10 9 13 11 9 9 8 8 7 7 7 6 5 5 4 6 6 5 5 5 2 1 2 2 2 2 1 2 1 1 1 2 2 1
11 12 13 17 14 19 12 8 8 10 10 9 9 9 8 8 7 6 6 6 6 5 5 5 5 6 6 6 6 6 4 2 2 2 2 2 1 1 1 1 1 1 1 1
8 11 14 17 18 14 11 10 10 11 12 8 10 9 8 7 7 7 5 5 5 5 4 5 5 6 7 6 6 6 7 6 6 6 5 3 2 3 2 3 2 1 1 1
8 9 13 15 18 19 13 8 6 7 15 8 8 8 8 8 12 9 5 4 4 4 5 5 6 6 7 7 7 7 8 8 8 8 6 5 5 4 5 4 4 3 2 1
12 12 15 15 16 14 9 7 6 15 13 7 7 7 8 9 8 6 5 5 4 5 5 5 6 7 7 7 8 8 8 8 7 7 7 7 6 5 5 5 4 4 3 2
13 15 15 14 17 17 6 7 10 9 7 7 7 7 7 6 6 5 5 4 4 5 5 6 7 7 7 7 8 8 9 7 7 7 7 7 7 7 6 6 5 4 4 3
14 10 13 12 13 8 6 7 6 5 6 6 6 6 5 6 5 5 5 4 4 4 4 5 6 6 6 6 7 8 8 8 7 8 8 8 8 7 6 6 6 6 5 6
9 8 11 10 9 8 6 5 5 4 5 5 5 4 5 5 5 5 5 4 4 3 3 4 5 7 7 7 7 8 7 6 7 8 8 8 8 8 7 9 8 9 9 8
8 8 9 10 8 6 6 5 5 4 4 4 4 4 4 4 5 5 4 4 4 3 3 4 4 5 5 5 6 6 6 7 7 6 7 7 7 6 10 12 11 12 13 13
7 9 10 11 8 8 7 5 4 4 4 4 4 4 4 4 4 4 4 4 3 3 3 3 3 4 4 4 5 5 4 4 5 6 6 7 6 7 9 10 13 11 12 12